Zurück zum Katalog

CS 3A

AktivKommunikationGEO
NORAD 18877·PAYLOAD·🇯🇵 Japan

Gestartet Feb 19, 1988 von Tanegashima Space Center

Loading…

TLE

AktuellSource: Space-Track

Epoche: Sep 12, 2026, 01:51 UTC

1 18877U 88012A   26255.07724074 -.00000214  00000-0  00000-0 0  9999
2 18877  15.2044 351.0497 0008204 323.5993  48.8665  0.98137516128521

Verfolge CS 3A in Echtzeit mit AllMySat

Download on the App Store